Date String (YYYY-MM-DD hh:mm:ss) UTC,Instrument flags,Ambient pressure (hPa),Sample flow (lpm),Bypass flow (lpm),Sample temperature (°C),Ambient temperature (°C),ASC tube jacket temperature (°C),LED temperature (°C),Box temperature (°C),Sample RH (%),Span deviation,Mass concentration (μg/m³),Mass concentration (μg/m³),Mass concentration (μg/m³)
DateTimeUTC,F1_M11,P_M11,Q1_M11,Q2_M11,T1_M11,T2_M11,T3_M11,T4_M11,T5_M11,U1_M11,ZSPAN_M11,X2_M11,X0_M11,X1_M11
2021-10-22 00:00:00,,0831.0,4.99,0.00,29.0,28.4,00.0,37.9,30.8,10.1,0000.0,0004.50,0017.18,0003.18
2021-10-22 00:01:00,,0831.0,5.02,0.00,29.0,28.4,00.0,37.9,30.9,10.1,0000.0,0004.54,0016.97,0003.18
2021-10-22 00:02:00,,0831.1,4.99,0.00,29.0,28.4,00.0,38.0,30.9,10.2,0000.0,0004.54,0016.80,0003.20
2021-10-22 00:03:00,,0831.0,5.00,0.00,29.0,28.4,00.0,38.0,30.9,10.2,0000.0,0004.51,0015.99,0003.21
2021-10-22 00:04:00,,0831.1,5.01,0.00,29.0,28.4,00.0,38.0,30.9,10.1,0000.0,0004.49,0016.15,0003.22
2021-10-22 00:05:00,,0831.1,5.01,0.00,29.1,28.4,00.0,38.0,30.9,10.1,0000.0,0004.47,0016.04,0003.23
2021-10-22 00:06:00,,0831.1,5.00,0.00,29.1,28.4,00.0,38.0,30.9,10.3,0000.0,0004.54,0015.45,0003.24
2021-10-22 00:07:00,,0831.0,4.99,0.00,29.1,28.4,00.0,38.0,30.9,10.4,0000.0,0004.64,0016.04,0003.28
2021-10-22 00:08:00,,0831.0,5.01,0.00,29.1,28.4,00.0,38.0,30.9,10.5,0000.1,0004.73,0018.13,0003.32
2021-10-22 00:09:00,,0831.0,5.01,0.00,29.1,28.4,00.0,38.0,30.9,10.5,0001.6,0004.78,0019.41,0003.34
2021-10-22 00:10:00,,0831.0,4.99,0.00,29.1,28.5,00.0,38.0,30.9,10.5,0000.0,0004.77,0018.64,0003.36
2021-10-22 00:11:00,,0831.0,5.01,0.00,29.1,28.5,00.0,38.0,31.0,10.3,0000.0,0004.72,0018.05,0003.37
2021-10-22 00:12:00,,0830.9,5.01,0.00,29.1,28.5,00.0,38.1,30.9,10.2,0000.0,0004.69,0018.02,0003.38
2021-10-22 00:13:00,,0831.0,4.99,0.00,29.1,28.5,00.0,38.1,30.9,10.3,0000.0,0004.71,0017.88,0003.39
2021-10-22 00:14:00,,0831.0,5.01,0.00,29.1,28.5,00.0,38.1,30.9,10.4,0000.0,0004.74,0017.99,0003.39
2021-10-22 00:15:00,,0831.0,4.99,0.00,29.1,28.5,00.0,38.1,30.9,10.5,0000.0,0004.79,0018.39,0003.39
2021-10-22 00:16:00,,0831.0,5.00,0.00,29.1,28.5,00.0,38.1,30.9,10.5,0000.0,0004.78,0018.44,0003.39
2021-10-22 00:17:00,,0831.1,5.01,0.00,29.1,28.5,00.0,38.1,30.9,10.6,0000.0,0004.73,0018.24,0003.37
2021-10-22 00:18:00,,0831.0,5.01,0.00,29.1,28.5,00.0,38.1,31.0,10.7,0000.0,0004.65,0017.25,0003.35
2021-10-22 00:19:00,,0831.0,5.00,0.00,29.1,28.5,00.0,38.1,31.0,10.7,0000.0,0004.61,0015.88,0003.30
2021-10-22 00:20:00,,0831.0,5.00,0.00,29.1,28.5,00.0,38.1,31.0,10.6,0000.0,0004.56,0015.45,0003.27
2021-10-22 00:21:00,,0831.0,4.99,0.00,29.1,28.5,00.0,38.1,30.9,10.7,0000.0,0004.55,0015.74,0003.25
2021-10-22 00:22:00,,0831.0,5.00,0.00,29.1,28.5,00.0,38.1,31.0,10.6,0000.0,0004.52,0016.41,0003.22
2021-10-22 00:23:00,,0831.1,5.02,0.00,29.2,28.5,00.0,38.1,31.0,10.6,0000.0,0004.51,0016.67,0003.20
2021-10-22 00:24:00,,0831.0,4.99,0.00,29.2,28.5,00.0,38.1,31.0,10.5,0000.0,0004.48,0016.53,0003.18
2021-10-22 00:25:00,,0831.0,5.00,0.00,29.2,28.5,00.0,38.1,31.0,10.5,0000.0,0004.39,0015.96,0003.17
2021-10-22 00:26:00,,0831.1,4.99,0.00,29.2,28.5,00.0,38.1,31.0,10.5,0000.0,0004.36,0015.46,0003.15
2021-10-22 00:27:00,,0831.0,4.99,0.00,29.2,28.5,00.0,38.1,31.0,10.4,0000.0,0004.35,0016.00,0003.13
2021-10-22 00:28:00,,0831.0,5.00,0.00,29.2,28.5,00.0,38.2,31.0,10.3,0000.0,0004.34,0015.59,0003.11
2021-10-22 00:29:00,,0831.0,5.00,0.00,29.2,28.5,00.0,38.2,31.0,10.4,0000.0,0004.33,0015.72,0003.07
2021-10-22 00:30:00,,0831.1,5.00,0.00,29.2,28.5,00.0,38.2,31.0,10.4,0000.0,0004.34,0015.77,0003.07
2021-10-22 00:31:00,,0831.0,5.00,0.00,29.2,28.5,00.0,38.2,31.0,10.4,0000.0,0004.31,0015.00,0003.07
2021-10-22 00:32:00,,0831.0,5.01,0.00,29.2,28.5,00.0,38.2,31.0,10.5,0000.0,0004.33,0014.61,0003.07
2021-10-22 00:33:00,,0831.1,5.02,0.00,29.2,28.5,00.0,38.2,31.0,10.5,0000.0,0004.36,0013.82,0003.10
2021-10-22 00:34:00,,0831.0,5.00,0.00,29.2,28.5,00.0,38.2,31.0,10.5,0000.0,0004.40,0013.71,0003.12
2021-10-22 00:35:00,,0831.1,5.00,0.00,29.2,28.5,00.0,38.2,31.0,10.5,0000.0,0004.48,0015.37,0003.14
2021-10-22 00:36:00,,0831.1,5.00,0.00,29.2,28.5,00.0,38.2,31.0,10.5,0000.0,0004.53,0016.05,0003.15
2021-10-22 00:37:00,,0831.0,5.01,0.00,29.2,28.5,00.0,38.2,31.0,10.4,0000.0,0004.52,0015.70,0003.13
2021-10-22 00:38:00,,0831.0,5.00,0.00,29.2,28.5,00.0,38.2,31.0,10.3,0000.0,0004.48,0014.40,0003.12
2021-10-22 00:39:00,,0831.0,4.99,0.00,29.2,28.5,00.0,38.2,31.0,10.3,0000.0,0004.45,0014.89,0003.12
2021-10-22 00:40:00,,0831.0,5.01,0.00,29.2,28.5,00.0,38.2,31.0,10.4,0000.0,0004.44,0016.30,0003.12
2021-10-22 00:41:00,,0830.9,4.99,0.00,29.2,28.5,00.0,38.2,31.0,10.4,0000.0,0004.40,0016.46,0003.13
2021-10-22 00:42:00,,0831.0,5.00,0.00,29.2,28.5,00.0,38.2,30.9,10.4,0000.0,0004.40,0015.94,0003.14
2021-10-22 00:43:00,,0830.9,5.01,0.00,29.2,28.5,00.0,38.2,31.0,10.4,0000.0,0004.40,0016.46,0003.16
2021-10-22 00:44:00,,0830.9,5.01,0.00,29.2,28.5,00.0,38.2,31.0,10.3,0000.0,0004.36,0017.43,0003.15
2021-10-22 00:45:00,,0830.9,5.00,0.00,29.2,28.5,00.0,38.2,31.0,10.2,0000.0,0004.35,0017.83,0003.12
2021-10-22 00:46:00,,0830.9,5.00,0.00,29.2,28.5,00.0,38.2,31.0,10.2,0000.0,0004.29,0016.92,0003.08
2021-10-22 00:47:00,,0830.9,4.99,0.00,29.2,28.5,00.0,38.2,31.0,10.2,0000.0,0004.28,0016.55,0003.05
2021-10-22 00:48:00,,0830.9,5.00,0.00,29.2,28.5,00.0,38.2,31.0,10.2,0000.0,0004.25,0016.70,0003.05
2021-10-22 00:49:00,,0830.9,5.00,0.00,29.2,28.5,00.0,38.2,31.0,10.2,0000.0,0004.27,0017.86,0003.07
2021-10-22 00:50:00,,0831.0,5.01,0.00,29.2,28.5,00.0,38.2,31.0,10.1,0000.0,0004.33,0018.28,0003.07
2021-10-22 00:51:00,,0831.0,5.00,0.00,29.2,28.5,00.0,38.2,30.9,09.9,0000.0,0004.33,0017.11,0003.05
2021-10-22 00:52:00,,0831.0,5.00,0.00,29.2,28.4,00.0,38.2,30.9,09.8,0000.0,0004.33,0016.63,0003.02
2021-10-22 00:53:00,,0831.0,5.00,0.00,29.2,28.4,00.0,38.2,30.9,09.8,0000.0,0004.34,0017.74,0002.98
2021-10-22 00:54:00,,0831.0,4.99,0.00,29.2,28.4,00.0,38.2,30.9,09.9,0000.0,0004.30,0017.79,0002.92
2021-10-22 00:55:00,,0831.0,4.98,0.00,29.2,28.4,00.0,38.2,30.9,09.8,0000.0,0004.32,0017.72,0002.90
2021-10-22 00:56:00,,0830.9,5.01,0.00,29.2,28.4,00.0,38.2,30.9,09.8,0000.0,0004.30,0017.23,0002.86
2021-10-22 00:57:00,,0830.9,5.00,0.00,29.2,28.4,00.0,38.2,30.9,09.7,0000.0,0004.24,0017.12,0002.83
2021-10-22 00:58:00,,0830.9,5.00,0.00,29.2,28.4,00.0,38.2,30.9,09.7,0000.0,0004.19,0016.54,0002.81
2021-10-22 00:59:00,,0830.9,5.00,0.00,29.2,28.4,00.0,38.2,30.9,09.8,0000.0,0004.19,0016.90,0002.81
